Grand Rapids, MN

3:37 PM CDT on May 29, 2017 (GMT -0500)
Grand Rapids-Itasca County-Newstrom Field

Weather History for KGPZ - December, 2014

Change the Weather History Date:

Sunday, December 21, 2014

  Actual Average Record
Temperature  
Mean Temperature 30 °F -  
Max Temperature 33 °F 19 °F 42 °F (1923)
Min Temperature 26 °F -2 °F -36 °F (1983)
Degree Days  
Heating Degree Days 36    
Moisture  
Dew Point 28 °F    
Average Humidity 93    
Maximum Humidity 100    
Minimum Humidity 86    
Precipitation  
Precipitation 0.00 in - - ()
Sea Level Pressure  
Sea Level Pressure 29.77 in    
Wind  
Wind Speed 12 mph (SSE)    
Max Wind Speed 18 mph    
Max Gust Speed 23 mph    
Visibility 4 miles    
Events      
Averages and records for this station are not official NWS values.
T = Trace of Precipitation, MM = Missing Value Source: NWS Daily Summary

Daily Weather History Graph

Daily Weather History Graph

Search for Another Location

Airport or City:

Trip Planner

Search our weather history database for the weather conditions in past years. The results will help you decide how hot, cold, wet, or windy it might be!

Date:

Astronomy

Dec. 21, 2014 Rise Set
Actual Time 7:57 AM CST 4:26 PM CST
Civil Twilight 7:22 AM CST 5:02 PM CST
Nautical Twilight 6:43 AM CST 5:41 PM CST
Astronomical Twilight 6:05 AM CST 6:18 PM CST
Moon 7:09 AM CST (12/21) 4:38 PM CST (12/21)
Length of Visible Light 9h 40m
Length of Day
8h 28m
Waning Crescent, 0% of the Moon is Illuminated
Dec 21
Waning Crescent
Dec 21
New
Dec 28
First Quarter
Jan 4
Full
Jan 13
Last Quarter

Hourly Weather History & Observations

Time (CST) Temp. Windchill Dew Point Humidity Pressure Visibility Wind Dir Wind Speed Gust Speed Precip Events Conditions
12:15 AM 26.6 °F 14.3 °F 24.8 °F 93% 29.96 in 6.0 mi SSE 16.1 mph 20.7 mph N/A   Overcast
12:35 AM 26.6 °F 15.2 °F 24.8 °F 93% 29.96 in 5.0 mi South 13.8 mph 20.7 mph N/A   Overcast
12:55 AM 26.6 °F 16.8 °F 24.8 °F 93% 29.96 in 5.0 mi South 10.4 mph - N/A   Overcast
1:15 AM 26.6 °F 16.2 °F 24.8 °F 93% 29.95 in 4.0 mi SSE 11.5 mph - N/A   Overcast
1:35 AM 26.6 °F 16.8 °F 24.8 °F 93% 29.94 in 4.0 mi SSE 10.4 mph 19.6 mph N/A   Overcast
1:55 AM 26.6 °F 13.4 °F 26.6 °F 100% 29.93 in 4.0 mi SSE 18.4 mph 23.0 mph N/A   Overcast
2:15 AM 26.6 °F 14.3 °F 26.6 °F 100% 29.93 in 4.0 mi South 16.1 mph 20.7 mph N/A   Overcast
2:35 AM 26.6 °F 15.7 °F 26.6 °F 100% 29.92 in 3.0 mi SSE 12.7 mph 20.7 mph N/A   Overcast
2:55 AM 26.6 °F 15.2 °F 24.8 °F 93% 29.91 in 4.0 mi SSE 13.8 mph 23.0 mph N/A   Overcast
3:15 AM 26.6 °F 15.7 °F 24.8 °F 93% 29.91 in 5.0 mi South 12.7 mph 21.9 mph N/A   Overcast
3:35 AM 28.4 °F 17.5 °F 24.8 °F 86% 29.90 in 5.0 mi South 13.8 mph 23.0 mph N/A   Overcast
3:55 AM 28.4 °F 17.5 °F 24.8 °F 86% 29.89 in 5.0 mi SSE 13.8 mph 19.6 mph N/A   Overcast
4:15 AM 28.4 °F 18.0 °F 24.8 °F 86% 29.89 in 5.0 mi SSE 12.7 mph 18.4 mph N/A   Overcast
4:35 AM 28.4 °F 17.0 °F 24.8 °F 86% 29.87 in 5.0 mi SSE 15.0 mph 21.9 mph N/A   Overcast
4:55 AM 28.4 °F 18.5 °F 26.6 °F 93% 29.86 in 5.0 mi SSE 11.5 mph 19.6 mph N/A   Overcast
5:15 AM 28.4 °F 17.0 °F 26.6 °F 93% 29.85 in 5.0 mi SSE 15.0 mph 21.9 mph N/A   Overcast
5:35 AM 28.4 °F 17.0 °F 24.8 °F 86% 29.85 in 5.0 mi SSE 15.0 mph - N/A   Overcast
5:55 AM 28.4 °F 17.0 °F 26.6 °F 93% 29.84 in 5.0 mi SSE 15.0 mph 20.7 mph N/A   Overcast
6:15 AM 28.4 °F 19.1 °F 26.6 °F 93% 29.85 in 5.0 mi South 10.4 mph - N/A   Overcast
6:35 AM 28.4 °F 17.5 °F 26.6 °F 93% 29.84 in 5.0 mi SSE 13.8 mph 19.6 mph N/A   Overcast
6:55 AM 28.4 °F 16.6 °F 26.6 °F 93% 29.83 in 5.0 mi South 16.1 mph - N/A   Overcast
7:15 AM 28.4 °F 16.6 °F 26.6 °F 93% 29.82 in 5.0 mi SSE 16.1 mph 21.9 mph N/A   Overcast
7:35 AM 28.4 °F 16.2 °F 26.6 °F 93% 29.82 in 5.0 mi South 17.3 mph 20.7 mph N/A   Overcast
7:55 AM 28.4 °F 17.5 °F 26.6 °F 93% 29.82 in 4.0 mi SSE 13.8 mph - N/A   Overcast
8:15 AM 28.4 °F 18.5 °F 26.6 °F 93% 29.82 in 3.0 mi South 11.5 mph 23.0 mph N/A   Overcast
8:35 AM 28.4 °F 18.5 °F 26.6 °F 93% 29.81 in 3.0 mi South 11.5 mph - N/A   Overcast
8:55 AM 28.4 °F 17.5 °F 26.6 °F 93% 29.81 in 4.0 mi South 13.8 mph - N/A   Overcast
9:15 AM 28.4 °F 17.5 °F 26.6 °F 93% 29.80 in 4.0 mi South 13.8 mph 20.7 mph N/A   Overcast
9:35 AM 28.4 °F 17.5 °F 26.6 °F 93% 29.80 in 4.0 mi SSE 13.8 mph 21.9 mph N/A   Overcast
9:55 AM 28.4 °F 16.6 °F 26.6 °F 93% 29.80 in 4.0 mi South 16.1 mph 19.6 mph N/A   Overcast
10:15 AM 28.4 °F 17.0 °F 26.6 °F 93% 29.80 in 3.0 mi SSE 15.0 mph - N/A   Overcast
10:35 AM 30.2 °F 20.8 °F 26.6 °F 86% 29.79 in 3.0 mi SSE 11.5 mph - N/A   Overcast
10:55 AM 30.2 °F 19.8 °F 28.4 °F 93% 29.79 in 3.0 mi SSE 13.8 mph 19.6 mph N/A   Overcast
11:15 AM 30.2 °F 19.8 °F 28.4 °F 93% 29.78 in 3.0 mi SSE 13.8 mph - N/A   Overcast
11:35 AM 30.2 °F 20.8 °F 28.4 °F 93% 29.77 in 3.0 mi SSE 11.5 mph - N/A   Overcast
11:55 AM 30.2 °F 20.8 °F 28.4 °F 93% 29.75 in 3.0 mi SSE 11.5 mph - N/A   Overcast
12:15 PM 30.2 °F 21.3 °F 28.4 °F 93% 29.74 in 3.0 mi SSE 10.4 mph - N/A   Overcast
12:35 PM 30.2 °F 21.3 °F 28.4 °F 93% 29.73 in 4.0 mi SSE 10.4 mph - N/A   Overcast
12:55 PM 30.2 °F 20.8 °F 28.4 °F 93% 29.72 in 2.5 mi SSE 11.5 mph 17.3 mph N/A   Overcast
1:15 PM 30.2 °F 20.8 °F 28.4 °F 93% 29.71 in 3.0 mi SSE 11.5 mph - N/A   Overcast
1:35 PM 30.2 °F 21.9 °F 28.4 °F 93% 29.71 in 2.0 mi SSE 9.2 mph - N/A   Overcast
1:55 PM 30.2 °F 21.3 °F 28.4 °F 93% 29.70 in 2.5 mi SSE 10.4 mph - N/A   Overcast
2:15 PM 30.2 °F 21.3 °F 30.2 °F 100% 29.69 in 3.0 mi SSE 10.4 mph - N/A   Overcast
2:35 PM 30.2 °F 20.8 °F 30.2 °F 100% 29.69 in 3.0 mi SSE 11.5 mph - N/A   Overcast
2:55 PM 32.0 °F 24.2 °F 30.2 °F 93% 29.69 in 3.0 mi SE 9.2 mph - N/A   Overcast
3:15 PM 32.0 °F 24.2 °F 30.2 °F 93% 29.69 in 2.5 mi SSE 9.2 mph - N/A   Overcast
3:35 PM 32.0 °F 23.6 °F 30.2 °F 93% 29.68 in 2.5 mi SSE 10.4 mph - N/A   Overcast
3:55 PM 32.0 °F 23.6 °F 30.2 °F 93% 29.68 in 2.0 mi SSE 10.4 mph - N/A   Overcast
4:15 PM 32.0 °F 24.8 °F 30.2 °F 93% 29.68 in 3.0 mi SSE 8.1 mph - N/A   Overcast
4:35 PM 32.0 °F 24.8 °F 30.2 °F 93% 29.69 in 3.0 mi SSE 8.1 mph - N/A   Overcast
4:55 PM 32.0 °F 25.6 °F 30.2 °F 93% 29.69 in 5.0 mi SE 6.9 mph - N/A   Overcast
5:15 PM 32.0 °F 24.8 °F 30.2 °F 93% 29.69 in 8.0 mi SE 8.1 mph - N/A   Overcast
5:35 PM 32.0 °F 24.8 °F 30.2 °F 93% 29.68 in 7.0 mi SE 8.1 mph - N/A   Overcast
5:55 PM 32.0 °F 24.2 °F 30.2 °F 93% 29.69 in 7.0 mi SSE 9.2 mph - N/A   Overcast
6:15 PM 32.0 °F 24.8 °F 30.2 °F 93% 29.68 in 6.0 mi SSE 8.1 mph - N/A   Overcast
6:35 PM 32.0 °F 25.6 °F 30.2 °F 93% 29.68 in 6.0 mi SE 6.9 mph - N/A   Overcast
6:55 PM 32.0 °F 24.8 °F 30.2 °F 93% 29.68 in 5.0 mi SE 8.1 mph - N/A   Overcast
7:15 PM 32.0 °F 24.8 °F 30.2 °F 93% 29.68 in 5.0 mi SE 8.1 mph - N/A   Overcast
7:35 PM 32.0 °F 24.8 °F 30.2 °F 93% 29.67 in 5.0 mi SE 8.1 mph - N/A   Overcast
7:55 PM 32.0 °F 24.8 °F 30.2 °F 93% 29.67 in 5.0 mi SE 8.1 mph - N/A   Overcast
8:15 PM 32.0 °F 25.6 °F 30.2 °F 93% 29.67 in 5.0 mi SE 6.9 mph - N/A   Overcast
8:35 PM 32.0 °F 26.4 °F 30.2 °F 93% 29.66 in 4.0 mi SE 5.8 mph - N/A   Overcast
8:55 PM 32.0 °F 25.6 °F 30.2 °F 93% 29.67 in 2.5 mi SE 6.9 mph - N/A   Overcast
9:15 PM 32.0 °F 26.4 °F 30.2 °F 93% 29.66 in 2.0 mi SE 5.8 mph - N/A   Overcast
9:35 PM 32.0 °F 24.8 °F 30.2 °F 93% 29.66 in 1.5 mi SE 8.1 mph - N/A   Overcast
9:55 PM 32.0 °F 25.6 °F 30.2 °F 93% 29.66 in 1.5 mi SSE 6.9 mph - N/A   Overcast
10:15 PM 32.0 °F 24.8 °F 30.2 °F 93% 29.66 in 1.5 mi SE 8.1 mph - N/A   Overcast
10:35 PM 32.0 °F 24.8 °F 32.0 °F 100% 29.66 in 1.2 mi SE 8.1 mph - N/A   Overcast
10:55 PM 33.8 °F 27.0 °F 32.0 °F 93% 29.66 in 1.2 mi SSE 8.1 mph - N/A   Overcast
11:15 PM 33.8 °F 28.6 °F 32.0 °F 93% 29.66 in 1.2 mi SSE 5.8 mph - N/A   Overcast
11:35 PM 33.8 °F 27.7 °F 32.0 °F 93% 29.66 in 1.0 mi SSE 6.9 mph - N/A   Overcast
11:55 PM 33.8 °F 27.0 °F 32.0 °F 93% 29.66 in 0.8 mi SE 8.1 mph - N/A   Overcast